Nantucket, MA

2:46 PM EST on November 24, 2017 (GMT -0500)
Nantucket Memorial

Weather History for KACK - August, 2013

Change the Weather History Date:

Friday, August 2, 2013

  Actual Average Record
Temperature  
Mean Temperature 70 °F -  
Max Temperature 75 °F 78 °F 100 °F (1975)
Min Temperature 66 °F 65 °F 53 °F (1953)
Cooling Degree Days 6    
Growing Degree Days 20 (Base 50)    
Moisture  
Dew Point 66 °F    
Average Humidity 89    
Maximum Humidity 100    
Minimum Humidity 76    
Precipitation  
Precipitation 0.01 in - - ()
Sea Level Pressure  
Sea Level Pressure 29.86 in    
Wind  
Wind Speed 8 mph (South)    
Max Wind Speed 17 mph    
Max Gust Speed 23 mph    
Visibility 9 miles    
Events Rain    
Averages and records for this station are not official NWS values.
T = Trace of Precipitation, MM = Missing Value Source: NWS Daily Summary

Daily Weather History Graph

Daily Weather History Graph

Search for Another Location

Airport or City:

Trip Planner

Search our weather history database for the weather conditions in past years. The results will help you decide how hot, cold, wet, or windy it might be!

Date:

Astronomy

Aug. 02, 2013 Rise Set
Actual Time 5:36 AM EDT 7:55 PM EDT
Civil Twilight 5:05 AM EDT 8:26 PM EDT
Nautical Twilight 4:27 AM EDT 9:04 PM EDT
Astronomical Twilight 3:45 AM EDT 9:46 PM EDT
Moon 1:54 AM EDT (8/2) 4:51 PM EDT (8/2)
Length of Visible Light 15h 20m
Length of Day
14h 18m
Waning Crescent, 16% of the Moon is Illuminated
Aug 2
Waning Crescent
Aug 6
New
Aug 14
First Quarter
Aug 20
Full
Aug 28
Last Quarter

Hourly Weather History & Observations

Time (EDT) Temp. Dew Point Humidity Pressure Visibility Wind Dir Wind Speed Gust Speed Precip Events Conditions
12:03 AM 69.8 °F 66.2 °F 88% 29.91 in 9.0 mi SSW 3.5 mph - 0.00 in Rain Light Rain
12:26 AM 68.0 °F 66.2 °F 94% 29.90 in 10.0 mi South 3.5 mph - 0.00 in Rain Light Rain
12:53 AM 68.0 °F 66.0 °F 93% 29.90 in 9.0 mi SE 4.6 mph - 0.01 in Rain Light Rain
1:14 AM 66.2 °F 64.4 °F 94% 29.88 in 10.0 mi ESE 5.8 mph - 0.00 in   Overcast
1:33 AM 68.0 °F 64.4 °F 88% 29.87 in 10.0 mi East 3.5 mph - 0.00 in   Overcast
1:53 AM 66.9 °F 64.9 °F 93% 29.87 in 9.0 mi East 3.5 mph - 0.00 in   Overcast
2:02 AM 66.2 °F 66.2 °F 100% 29.87 in 8.0 mi East 3.5 mph - N/A   Overcast
2:53 AM 66.9 °F 64.9 °F 93% 29.84 in 8.0 mi SE 9.2 mph - N/A   Overcast
3:53 AM 66.0 °F 64.0 °F 93% 29.82 in 9.0 mi SE 11.5 mph - N/A   Mostly Cloudy
4:19 AM 66.2 °F 64.4 °F 94% 29.81 in 8.0 mi ESE 11.5 mph - N/A   Mostly Cloudy
4:53 AM 66.0 °F 64.9 °F 96% 29.82 in 8.0 mi ESE 8.1 mph - N/A   Overcast
5:29 AM 66.2 °F 64.4 °F 94% 29.82 in 8.0 mi SE 9.2 mph - N/A   Overcast
5:36 AM 66.2 °F 64.4 °F 94% 29.82 in 8.0 mi ESE 8.1 mph - N/A   Overcast
5:53 AM 66.0 °F 64.9 °F 96% 29.83 in 7.0 mi ESE 6.9 mph - N/A   Overcast
6:53 AM 66.9 °F 64.0 °F 90% 29.82 in 10.0 mi East 6.9 mph - N/A   Overcast
7:53 AM 66.9 °F 64.0 °F 90% 29.83 in 10.0 mi SE 9.2 mph - N/A   Clear
8:53 AM 70.0 °F 64.9 °F 84% 29.83 in 10.0 mi SE 5.8 mph - N/A   Mostly Cloudy
9:53 AM 69.1 °F 64.9 °F 87% 29.84 in 10.0 mi SSE 6.9 mph - N/A   Overcast
10:53 AM 68.0 °F 66.0 °F 93% 29.84 in 8.0 mi South 5.8 mph - 0.00 in   Overcast
11:53 AM 71.1 °F 66.9 °F 87% 29.85 in 10.0 mi SSW 10.4 mph - 0.00 in   Overcast
11:59 AM 71.6 °F 66.2 °F 83% 29.84 in 10.0 mi SSW 10.4 mph - N/A   Overcast
12:39 PM 73.4 °F 69.8 °F 88% 29.83 in 10.0 mi SW 11.5 mph - N/A   Mostly Cloudy
12:53 PM 73.9 °F 69.1 °F 85% 29.83 in 10.0 mi SW 13.8 mph - N/A   Scattered Clouds
1:53 PM 75.0 °F 69.1 °F 82% 29.84 in 10.0 mi SW 12.7 mph - N/A   Scattered Clouds
2:53 PM 75.0 °F 68.0 °F 79% 29.84 in 10.0 mi WSW 13.8 mph - N/A   Clear
3:53 PM 73.9 °F 66.9 °F 79% 29.84 in 10.0 mi WSW 16.1 mph 23.0 mph N/A   Clear
4:53 PM 73.9 °F 66.0 °F 76% 29.85 in 10.0 mi WSW 15.0 mph - N/A   Clear
5:53 PM 72.0 °F 66.0 °F 81% 29.86 in 10.0 mi WSW 17.3 mph - N/A   Clear
6:53 PM 71.1 °F 64.9 °F 81% 29.87 in 10.0 mi WSW 17.3 mph 23.0 mph N/A   Clear
7:53 PM 69.1 °F 66.0 °F 90% 29.88 in 10.0 mi WSW 16.1 mph - N/A   Clear
8:53 PM 69.1 °F 66.0 °F 90% 29.89 in 10.0 mi WSW 13.8 mph - N/A   Clear
9:53 PM 69.1 °F 66.0 °F 90% 29.91 in 9.0 mi WSW 11.5 mph - N/A   Clear
10:53 PM 69.1 °F 66.0 °F 90% 29.92 in 9.0 mi WSW 10.4 mph - N/A   Clear
11:53 PM 69.1 °F 66.9 °F 93% 29.92 in 8.0 mi SW 8.1 mph - N/A   Clear